GW5446 Weather Reports


time (UTC)temp
C
wind
direction
speed
KPH
gust
KPH
rain 1hr
cm
rain 24hr
cm
rain mn
cm
humidity
%
barometer
mb
20260503072014 7 0 0.0 0.0 0.00 0.00 0.00 76 1015.3
20260503071530 7 0 0.0 4.8 0.00 0.00 0.00 76 1015.3
20260503071011 8 0 0.0 4.8 0.00 0.00 0.00 74 1015.1
20260503070514 8 278 3.2 4.8 0.00 0.00 0.00 71 1015.1
20260503055009 8 0 0.0 0.0 0.00 0.00 0.00 73 1014.8
20260503054543 8 0 0.0 3.2 0.00 0.00 0.00 74 1014.8
20260503054011 8 0 0.0 4.8 0.00 0.00 0.00 74 1014.7
20260503053511 10 0 1.6 4.8 0.00 0.00 0.00 67 1014.7
20260503053032 10 333 1.6 4.8 0.00 0.00 0.00 69 1014.6
20260503052508 10 0 0.0 0.0 0.00 0.00 0.00 70 1014.6
20260503052010 10 0 0.0 3.2 0.00 0.00 0.00 69 1014.6
20260503051529 10 0 1.6 3.2 0.00 0.00 0.00 67 1014.5
20260503051009 10 0 0.0 0.0 0.00 0.00 0.00 69 1014.5
20260503050515 10 0 0.0 0.0 0.00 0.00 0.00 69 1014.5
20260503050028 10 0 0.0 0.0 0.00 0.00 0.00 67 1014.5
20260503045508 10 0 0.0 0.0 0.00 0.00 0.00 70 1014.4
20260503045007 10 0 0.0 0.0 0.00 0.00 0.00 69 1014.4
20260503044537 10 0 0.0 3.2 0.00 0.00 0.00 71 1014.4
20260503044010 10 0 0.0 3.2 0.00 0.00 0.00 70 1014.4
20260503043508 10 0 0.0 3.2 0.00 0.00 0.00 69 1014.3
20260503043033 11 0 1.6 3.2 0.00 0.00 0.00 66 1014.3
20260503042508 11 288 1.6 4.8 0.00 0.00 0.00 64 1014.4
20260503042012 11 290 3.2 4.8 0.00 0.00 0.00 63 1014.4
20260503041528 11 289 3.2 4.8 0.00 0.00 0.00 63 1014.4
20260503041008 11 288 3.2 4.8 0.00 0.00 0.00 64 1014.4
20260503040512 12 0 0.0 0.0 0.00 0.00 0.00 63 1014.3
20260503040035 12 0 0.0 0.0 0.00 0.00 0.00 64 1014.3
20260503035511 12 0 0.0 0.0 0.00 0.00 0.00 63 1014.2
20260503035010 12 0 0.0 3.2 0.00 0.00 0.00 68 1014.3
20260503034528 12 0 0.0 3.2 0.00 0.00 0.00 67 1014.2
20260503034011 12 0 0.0 4.8 0.00 0.00 0.00 65 1014.1
20260503033510 12 278 1.6 4.8 0.00 0.00 0.00 64 1014.0
20260503033030 12 0 0.0 0.0 0.00 0.00 0.00 64 1014.0
20260503032509 12 0 0.0 0.0 0.00 0.00 0.00 63 1014.1
20260503032012 12 0 0.0 3.2 0.00 0.00 0.00 64 1013.9
20260503031530 13 0 0.0 6.4 0.00 0.00 0.00 61 1013.9
20260503031009 12 307 3.2 6.4 0.00 0.00 0.00 64 1013.8
20260503030509 12 285 3.2 4.8 0.00 0.00 0.00 65 1013.8
20260503030035 13 279 1.6 4.8 0.00 0.00 0.00 65 1013.8
20260503025510 13 276 1.6 4.8 0.00 0.00 0.00 64 1013.8
20260503025010 13 266 1.6 3.2 0.00 0.00 0.00 62 1013.8
20260503024533 14 0 0.0 6.4 0.00 0.00 0.00 61 1013.7
20260503024009 15 354 1.6 6.4 0.00 0.00 0.00 56 1013.5
20260503023510 15 1 1.6 4.8 0.00 0.00 0.00 59 1013.5
20260503023029 15 342 0.0 3.2 0.00 0.00 0.00 61 1013.6
20260503022508 15 0 0.0 0.0 0.00 0.00 0.00 65 1013.6
20260503022009 15 0 0.0 0.0 0.00 0.00 0.00 58 1013.5
20260503021528 16 0 0.0 0.0 0.00 0.00 0.00 56 1013.5
20260503021010 16 0 0.0 0.0 0.00 0.00 0.00 54 1013.5
20260503020510 16 0 0.0 0.0 0.00 0.00 0.00 54 1013.5
20260503020028 16 0 0.0 0.0 0.00 0.00 0.00 53 1013.6
20260503015514 16 0 0.0 0.0 0.00 0.00 0.00 53 1013.6
20260503015009 16 0 0.0 0.0 0.00 0.00 0.00 52 1013.5
20260503014528 16 0 0.0 0.0 0.00 0.00 0.00 53 1013.6
20260503014011 16 0 0.0 0.0 0.00 0.00 0.00 53 1013.6
20260503013511 16 0 0.0 0.0 0.00 0.00 0.00 55 1013.6
20260503013037 16 0 0.0 3.2 0.00 0.00 0.00 56 1013.6
20260503012509 17 0 0.0 3.2 0.00 0.00 0.00 54 1013.5
20260503012010 17 333 0.0 3.2 0.00 0.00 0.00 54 1013.5
20260503011529 17 0 0.0 3.2 0.00 0.00 0.00 50 1013.6
20260503011010 18 0 0.0 4.8 0.00 0.00 0.00 49 1013.5
20260503010514 18 288 0.0 4.8 0.00 0.00 0.00 45 1013.6
20260503010031 20 281 1.6 3.2 0.00 0.00 0.00 43 1013.6
20260503005511 19 0 0.0 0.0 0.00 0.00 0.00 50 1013.6
20260503005009 20 0 0.0 0.0 0.00 0.00 0.00 55 1013.8
20260503004557 20 0 0.0 0.0 0.00 0.00 0.00 50 1013.6
20260503004012 20 0 0.0 0.0 0.00 0.00 0.00 47 1013.7
20260503003509 20 0 0.0 0.0 0.00 0.00 0.00 53 1013.8
20260503003042 20 0 0.0 3.2 0.00 0.00 0.00 45 1013.7
20260503002510 20 0 0.0 3.2 0.00 0.00 0.00 41 1013.7
20260503002009 20 0 1.6 3.2 0.00 0.00 0.00 38 1013.7
20260503001540 20 0 0.0 0.0 0.00 0.00 0.00 46 1013.6
20260503001008 20 0 0.0 0.0 0.00 0.00 0.00 50 1013.7
20260503000509 21 0 0.0 3.2 0.00 0.00 0.00 43 1013.8
20260503000028 21 0 0.0 3.2 0.00 0.00 0.00 44 1013.8
20260502235510 21 0 0.0 3.2 0.00 0.00 0.00 35 1013.8
20260502235010 21 35 0.0 3.2 0.00 0.00 0.00 41 1013.8
20260502234538 21 269 0.0 3.2 0.00 0.00 0.00 37 1013.8
20260502234009 21 0 0.0 3.2 0.00 0.00 0.00 32 1013.9
20260502233507 21 0 0.0 9.7 0.00 0.00 0.00 31 1013.9
20260502233038 21 0 3.2 9.7 0.00 0.00 0.00 29 1014.0
20260502232507 22 70 1.6 9.7 0.00 0.00 0.00 31 1014.0
20260502232010 22 113 4.8 9.7 0.00 0.00 0.00 33 1014.0
20260502231528 22 328 3.2 14.5 0.00 0.00 0.00 28 1014.0
20260502231010 22 129 6.4 16.1 0.00 0.00 0.00 28 1014.1
20260502230511 23 124 8.0 16.1 0.00 0.00 0.00 34 1014.1
20260502230034 22 0 4.8 16.1 0.00 0.00 0.00 34 1014.3
20260502225510 22 122 6.4 16.1 0.00 0.00 0.00 31 1014.4
20260502225008 22 131 3.2 8.0 0.00 0.00 0.00 31 1014.4
20260502224528 22 114 4.8 8.0 0.00 0.00 0.00 34 1014.5
20260502224013 23 147 3.2 8.0 0.00 0.00 0.00 28 1014.5
20260502223512 23 113 3.2 12.9 0.00 0.00 0.00 32 1014.4
20260502223038 22 131 3.2 16.1 0.00 0.00 0.00 28 1014.5
20260502222511 22 101 9.7 16.1 0.00 0.00 0.00 28 1014.6
20260502222010 22 131 4.8 9.7 0.00 0.00 0.00 32 1014.6
20260502221529 22 106 4.8 8.0 0.00 0.00 0.00 30 1014.6
20260502221008 22 126 3.2 6.4 0.00 0.00 0.00 32 1014.7
20260502220511 22 162 0.0 3.2 0.00 0.00 0.00 36 1014.8
20260502220028 22 250 0.0 6.4 0.00 0.00 0.00 30 1014.9
20260502215513 22 0 0.0 6.4 0.00 0.00 0.00 33 1015.0
20260502215010 22 161 1.6 4.8 0.00 0.00 0.00 32 1015.0
20260502214532 21 0 0.0 6.4 0.00 0.00 0.00 30 1015.1
20260502214015 21 0 3.2 6.4 0.00 0.00 0.00 33 1015.0
20260502213511 21 0 0.0 9.7 0.00 0.00 0.00 31 1015.1
20260502213028 21 155 3.2 9.7 0.00 0.00 0.00 33 1015.1
20260502212510 22 156 1.6 6.4 0.00 0.00 0.00 34 1015.2
20260502212009 22 96 0.0 9.7 0.00 0.00 0.00 33 1015.3
20260502211532 22 0 1.6 9.7 0.00 0.00 0.00 32 1015.3
20260502211008 22 184 4.8 8.0 0.00 0.00 0.00 30 1015.4
20260502210510 21 138 0.0 14.5 0.00 0.00 0.00 33 1015.4
20260502210035 22 130 8.0 14.5 0.00 0.00 0.00 31 1015.5
20260502205508 22 161 4.8 12.9 0.00 0.00 0.00 32 1015.5
20260502205010 21 149 3.2 6.4 0.00 0.00 0.00 33 1015.6
20260502204529 21 0 0.0 9.7 0.00 0.00 0.00 33 1015.7
20260502204010 21 142 3.2 9.7 0.00 0.00 0.00 35 1015.7
20260502203513 21 167 4.8 9.7 0.00 0.00 0.00 33 1015.8
20260502203030 21 132 4.8 9.7 0.00 0.00 0.00 38 1015.7
20260502202511 21 167 3.2 9.7 0.00 0.00 0.00 35 1015.8
20260502202009 21 164 3.2 12.9 0.00 0.00 0.00 38 1015.9
20260502201529 21 127 4.8 12.9 0.00 0.00 0.00 42 1016.0
20260502201011 20 130 6.4 12.9 0.00 0.00 0.00 43 1016.0
20260502200511 20 113 3.2 11.3 0.00 0.00 0.00 41 1016.1
20260502200028 20 176 3.2 8.0 0.00 0.00 0.00 40 1016.1
20260502195511 20 178 1.6 8.0 0.00 0.00 0.00 41 1016.1
20260502195011 20 96 4.8 8.0 0.00 0.00 0.00 41 1016.3
20260502194533 20 75 1.6 11.3 0.00 0.00 0.00 43 1016.3
20260502194010 19 104 4.8 11.3 0.00 0.00 0.00 38 1016.5
20260502193511 20 145 3.2 11.3 0.00 0.00 0.00 45 1016.5
20260502193033 19 141 4.8 11.3 0.00 0.00 0.00 44 1016.5
20260502192511 19 121 6.4 11.3 0.00 0.00 0.00 41 1016.6
20260502192013 18 119 3.2 9.7 0.00 0.00 0.00 39 1016.8
20260502191529 18 117 1.6 9.7 0.00 0.00 0.00 43 1016.8
20260502191010 18 102 3.2 9.7 0.00 0.00 0.00 41 1016.9
20260502190511 18 106 4.8 14.5 0.00 0.00 0.00 41 1016.8
20260502190037 18 111 8.0 14.5 0.00 0.00 0.00 42 1016.9
20260502185509 18 126 6.4 11.3 0.00 0.00 0.00 45 1016.8
20260502185009 18 105 6.4 11.3 0.00 0.00 0.00 45 1017.0
20260502184530 18 99 1.6 12.9 0.00 0.00 0.00 42 1017.0
20260502184014 18 126 4.8 14.5 0.00 0.00 0.00 43 1017.1
20260502183511 17 127 6.4 14.5 0.00 0.00 0.00 48 1017.1
20260502183028 17 95 8.0 14.5 0.00 0.00 0.00 45 1017.2
20260502182509 17 124 3.2 16.1 0.00 0.00 0.00 43 1017.3
20260502182010 17 122 9.7 16.1 0.00 0.00 0.00 45 1017.4
20260502181536 17 103 8.0 12.9 0.00 0.00 0.00 47 1017.6
20260502181010 17 148 8.0 11.3 0.00 0.00 0.00 45 1017.7
20260502180512 17 115 6.4 12.9 0.00 0.00 0.00 46 1017.8
20260502170509 15 77 3.2 14.5 0.00 0.00 0.00 53 1018.2
20260502164012 14 212 1.6 16.1 0.00 0.00 0.00 51 1018.5
20260502163509 14 127 4.8 16.1 0.00 0.00 0.00 50 1018.6
20260502163039 13 139 4.8 11.3 0.00 0.00 0.00 56 1018.6
20260502162510 13 125 8.0 11.3 0.00 0.00 0.00 56 1018.5
20260502162011 13 141 6.4 11.3 0.00 0.00 0.00 53 1018.5
20260502161533 13 155 3.2 9.7 0.00 0.00 0.00 56 1018.6
20260502161010 13 110 3.2 16.1 0.00 0.00 0.00 54 1018.6
20260502160510 13 0 3.2 16.1 0.00 0.00 0.00 57 1018.7
20260502152010 11 0 3.2 8.0 0.00 0.00 0.00 63 1018.7
20260502151547 11 120 0.0 4.8 0.00 0.00 0.00 68 1018.7
20260502151010 10 0 0.0 4.8 0.00 0.00 0.00 70 1018.6
20260502150510 10 0 0.0 3.2 0.00 0.00 0.00 71 1018.6
20260502130513 4 0 0.0 0.0 0.00 0.00 0.00 86 1018.2
20260502123511 5 0 0.0 0.0 0.00 0.00 0.00 81 1017.8
20260502123036 5 0 0.0 0.0 0.00 0.00 0.00 81 1017.9
20260502122511 5 0 0.0 0.0 0.00 0.00 0.00 82 1017.8
20260502122010 5 0 0.0 0.0 0.00 0.00 0.00 83 1017.9
20260502121530 5 0 0.0 0.0 0.00 0.00 0.00 83 1017.8
20260502121010 4 0 0.0 0.0 0.00 0.00 0.00 81 1017.9
20260502120510 5 0 0.0 0.0 0.00 0.00 0.00 80 1017.7
20260502115508 4 0 0.0 0.0 0.00 0.00 0.00 84 1017.8
20260502115013 5 0 0.0 0.0 0.00 0.00 0.00 85 1017.8
20260502114527 4 0 0.0 0.0 0.00 0.00 0.00 83 1017.9
20260502114009 5 0 0.0 0.0 0.00 0.00 0.00 82 1017.7
20260502113512 5 0 0.0 0.0 0.00 0.00 0.00 81 1017.7
20260502113030 5 0 0.0 0.0 0.00 0.00 0.00 81 1017.8
20260502112508 5 0 0.0 0.0 0.00 0.00 0.00 82 1017.7
20260502112010 5 0 0.0 0.0 0.00 0.00 0.00 82 1017.6
20260502111530 5 0 0.0 0.0 0.00 0.00 0.00 80 1017.6
20260502111010 5 0 0.0 0.0 0.00 0.00 0.00 81 1017.7
20260502110510 6 0 0.0 3.2 0.00 0.00 0.00 78 1017.7
20260502110028 6 0 0.0 3.2 0.00 0.00 0.00 81 1017.7
20260502105511 5 0 0.0 0.0 0.00 0.00 0.00 81 1017.6
20260502105010 5 0 0.0 3.2 0.00 0.00 0.00 82 1017.7
20260502104532 5 0 0.0 3.2 0.00 0.00 0.00 82 1017.8
20260502104013 5 0 0.0 3.2 0.00 0.00 0.00 78 1017.8
20260502103510 6 0 0.0 0.0 0.00 0.00 0.00 79 1017.8
20260502103029 6 0 0.0 0.0 0.00 0.00 0.00 78 1017.7
20260502102509 6 0 0.0 4.8 0.00 0.00 0.00 79 1017.7
20260502102009 6 0 0.0 4.8 0.00 0.00 0.00 81 1017.6
20260502101527 6 122 1.6 4.8 0.00 0.00 0.00 78 1017.5
20260502101009 6 0 0.0 0.0 0.00 0.00 0.00 79 1017.5
20260502100509 6 0 0.0 3.2 0.00 0.00 0.00 79 1017.4
20260502091530 7 0 0.0 0.0 0.00 0.00 0.00 76 1017.3
20260502091011 6 0 0.0 0.0 0.00 0.00 0.00 78 1017.3
20260502090509 6 0 0.0 0.0 0.00 0.00 0.00 78 1017.2